Location: Newark
(36.0797°N, 3.9744°E)
Time: 22:46:16
(UTC+00:00)

Tiros 1 - Pass Details

Date: 14 December 2019
Orbit: 630 x 664 km, 48.4° (Epoch: 21 January)

Event Time Altitude Azimuth Distance (km) Brightness Sun altitude
Exits shadow 05:45:54 17° 298° (WNW) 1,635 8.6 -12.0°
Maximum altitude 05:48:24 26° 341° (NNW) 1,279 8.3 -11.5°
Drops below altitude 10° 05:52:20 10° 38° (NE) 2,033 9.9 -10.8°
Sets 05:54:59 0° 51° (NE) 2,937 11.0 -10.3°
